Weather History for Westerly, RI

Change the Weather History Date:

Sunday, February 9, 2014

  Actual Average (KGON) Record (KGON)
Temperature  
Mean Temperature 25 °F -  
Max Temperature 32 °F 36 °F 53 °F (1990)
Min Temperature 18 °F 16 °F -1 °F (1978)
Degree Days  
Heating Degree Days 40    
Moisture  
Dew Point 16 °F    
Average Humidity 70    
Maximum Humidity 92    
Minimum Humidity 46    
Precipitation  
Precipitation 0.00 in - - ()
Sea Level Pressure  
Sea Level Pressure 30.05 in    
Wind  
Wind Speed 4 mph (WSW)    
Max Wind Speed 7 mph    
Max Gust Speed -    
Visibility 6 miles    
Events Snow    
Averages and records for this station are not official NWS values.
T = Trace of Precipitation, MM = Missing Value Source: NWS Daily Summary

Daily Weather History Graph

Daily Weather History Graph

Search for Another Location

Airport:

Trip Planner

Search our weather history database for the weather conditions in past years. The results will help you decide how hot, cold, wet, or windy it might be!

Date:

Astronomy

Feb. 09, 2014 Rise Set
Actual Time 6:49 AM EST 5:13 PM EST
Civil Twilight 6:21 AM EST 5:42 PM EST
Nautical Twilight 5:48 AM EST 6:15 PM EST
Astronomical Twilight 5:16 AM EST 6:47 PM EST
Moon 12:50 PM EST (2/9) 2:53 AM EST (2/9)
Length of Visible Light 11h 21m
Length of Day
10h 23m
Waxing Gibbous, 77% of the Moon is Illuminated
Feb 9
Waxing Gibbous
Feb 14
Full
Feb 22
Last Quarter
Mar 1
New
Mar 8
First Quarter

Hourly Weather History & Observations

Time (EST) Temp. Windchill Dew Point Humidity Pressure Visibility Wind Dir Wind Speed Gust Speed Precip Events Conditions
12:53 AM 19.9 °F - 12.0 °F 71% 30.13 in 10.0 mi Calm Calm - N/A   Mostly Cloudy
1:53 AM 21.0 °F - 12.9 °F 71% 30.14 in 10.0 mi Calm Calm - N/A   Overcast
2:53 AM 21.9 °F - 10.9 °F 63% 30.14 in 10.0 mi Calm Calm - N/A   Overcast
3:53 AM 21.0 °F 13.4 °F 8.1 °F 57% 30.13 in 10.0 mi North 5.8 mph - N/A   Overcast
4:53 AM 19.9 °F 14.9 °F 5.0 °F 52% 30.13 in 10.0 mi NNW 3.5 mph - N/A   Clear
5:53 AM 18.0 °F 12.7 °F 5.0 °F 57% 30.14 in 10.0 mi North 3.5 mph - N/A   Clear
6:53 AM 18.0 °F - 5.0 °F 57% 30.15 in 10.0 mi Calm Calm - N/A   Clear
7:53 AM 19.9 °F 12.1 °F 3.9 °F 50% 30.15 in 10.0 mi North 5.8 mph - N/A   Clear
8:53 AM 24.1 °F 16.0 °F 6.1 °F 46% 30.15 in 10.0 mi NNW 6.9 mph - N/A   Clear
9:53 AM 27.0 °F 19.5 °F 9.0 °F 47% 30.15 in 10.0 mi North 6.9 mph - N/A   Clear
10:53 AM 28.9 °F 21.9 °F 12.0 °F 49% 30.13 in 10.0 mi Variable 6.9 mph - N/A   Clear
11:53 AM 30.9 °F 25.2 °F 12.9 °F 47% 30.11 in 10.0 mi WNW 5.8 mph - N/A   Clear
12:53 PM 32.0 °F 27.5 °F 14.0 °F 48% 30.09 in 10.0 mi Variable 4.6 mph - N/A   Clear
1:53 PM 30.9 °F 25.2 °F 12.9 °F 47% 30.07 in 10.0 mi SSW 5.8 mph - N/A   Clear
2:53 PM 30.0 °F 23.2 °F 12.0 °F 47% 30.06 in 10.0 mi SSW 6.9 mph - N/A   Clear
3:53 PM 30.0 °F 24.1 °F 12.9 °F 49% 30.04 in 10.0 mi SSW 5.8 mph - N/A   Scattered Clouds
4:53 PM 28.9 °F 22.8 °F 14.0 °F 54% 30.03 in 10.0 mi South 5.8 mph - N/A   Mostly Cloudy
5:53 PM 28.9 °F - 15.1 °F 56% 30.04 in 10.0 mi Calm Calm - N/A   Overcast
6:53 PM 28.9 °F - 16.0 °F 58% 30.04 in 10.0 mi Calm Calm - N/A   Overcast
7:53 PM 28.0 °F 20.8 °F 16.0 °F 61% 30.03 in 9.0 mi SSW 6.9 mph - N/A   Overcast
8:14 PM 27.0 °F 21.6 °F 19.9 °F 75% 30.02 in 2.5 mi West 4.6 mph - 0.00 in Snow Light Snow
8:23 PM 26.1 °F 19.4 °F 19.9 °F 78% 30.02 in 1.5 mi WSW 5.8 mph - 0.00 in Snow Light Snow
8:38 PM 26.1 °F 20.5 °F 21.0 °F 81% 30.01 in 2.0 mi West 4.6 mph - 0.00 in Snow Light Snow
8:53 PM 25.0 °F 20.7 °F 21.9 °F 88% 30.01 in 2.0 mi West 3.5 mph - 0.00 in Snow Light Snow
9:14 PM 25.0 °F 19.3 °F 21.9 °F 88% 30.01 in 1.5 mi WSW 4.6 mph - 0.00 in Snow Light Snow
9:53 PM 25.0 °F 19.3 °F 23.0 °F 92% 30.01 in 1.0 mi WSW 4.6 mph - 0.00 in Snow Light Snow
10:05 PM 25.0 °F 20.7 °F 23.0 °F 92% 30.00 in 1.0 mi WSW 3.5 mph - 0.00 in Snow Light Snow
10:25 PM 25.0 °F 19.3 °F 23.0 °F 92% 30.00 in 1.0 mi WSW 4.6 mph - 0.00 in Snow Light Snow
10:41 PM 26.1 °F 20.5 °F 23.0 °F 88% 29.99 in 0.8 mi SW 4.6 mph - 0.00 in Snow Light Snow
10:49 PM 26.6 °F 20.0 °F 23.0 °F 86% 29.99 in 1.0 mi SW 5.8 mph - 0.00 in Snow Light Snow
10:53 PM 26.1 °F 19.4 °F 23.0 °F 88% 29.99 in 1.0 mi SW 5.8 mph - 0.00 in Snow Light Snow
11:10 PM 26.1 °F 18.4 °F 24.1 °F 92% 29.98 in 1.2 mi WSW 6.9 mph - 0.00 in Snow Light Snow
11:20 PM 26.1 °F 19.4 °F 24.1 °F 92% 29.98 in 1.5 mi WSW 5.8 mph - 0.00 in Snow Light Snow
11:30 PM 26.1 °F 20.5 °F 24.1 °F 92% 29.98 in 2.0 mi WSW 4.6 mph - 0.00 in Snow Light Snow
11:38 PM 26.1 °F 18.4 °F 23.0 °F 88% 29.97 in 3.0 mi WSW 6.9 mph - 0.00 in Snow Light Snow
11:43 PM 26.1 °F 20.5 °F 24.1 °F 92% 29.97 in 3.0 mi WSW 4.6 mph - 0.00 in Snow Light Snow
11:53 PM 26.1 °F 18.4 °F 24.1 °F 92% 29.97 in 2.5 mi WSW 6.9 mph - 0.00 in Snow Light Snow